Terminal Aerodrome Forecast
Issued by NWS

Home | Current Version | Previous Version | Graphics & Text | Print | Product List | Glossary On
Versions: 1 2 3 4 5 6 7 8 9 10 11 12 13 14 15 16 17
000
FTUS42 KMHX 242006 AAA
TAFISO
TAF AMD
KISO 242006Z 2420/2518 25010KT 6SM SHRA VCTS BKN040CB
      TEMPO 2420/2422 VRB15G30KT 1SM +TSRA BKN010CB
     FM250000 21005KT 4SM SHRA VCTS SCT025CB OVC040
     FM251000 29005KT 6SM -SHRA VCTS SCT007CB OVC020
     FM251300 30005KT P6SM BKN050
      AMD LTD TO CLD VIS AND WIND=

USA.gov is the U.S. government's official web portal to all federal, state and local government web resources and services.